Orbital Elements at Epoch 2459200.5 (2020-Dec-17.0) TDB
Reference: JPL 19 (heliocentric ecliptic J2000)
Element | Value | Uncertainty (1-sigma) | Units |
e | .3877041060326102 | 3.3221e-08 | |
a | 2.624286449594979 | 8.0185e-09 | au |
q | 1.606839817681265 | 8.9341e-08 | au |
i | 27.77174576993242 | 5.7427e-06 | deg |
node | 183.8033153231334 | 8.847e-06 | deg |
peri | 104.5673162401861 | 1.3714e-05 | deg |
M | 22.93580628195404 | 6.2289e-06 | deg |
tp | 2459101.570276575877 (2020-Sep-09.07027658) | 2.6899e-05 | TDB |
period | 1552.799147100667 4.25 | 7.1169e-06 1.949e-08 | d yr |
n | .2318393854557297 | 1.0626e-09 | deg/d |
Q | 3.641733081508693 | 1.1127e-08 | au |
|
| | Orbit Determination Parameters
Additional Information
|